| time (UTC) | temp F | wind direction | speed MPH | gust MPH | rain 1hr in | rain 24hr in | rain mn in | humidity % | barometer mb |
| 20260504000042 | 72 | 0.0 | 0.0 | 0.00 | 0.00 | 0.00 | 48 | 1017.5 | |
| 20260503234542 | 73 | 0.0 | 0.0 | 0.00 | 0.00 | 0.00 | 49 | 1017.5 | |
| 20260503233043 | 74 | 0.0 | 0.0 | 0.00 | 0.00 | 0.00 | 46 | 1017.6 | |
| 20260503231540 | 74 | 0.0 | 0.0 | 0.00 | 0.00 | 0.00 | 46 | 1017.5 | |
| 20260503230038 | 75 | 0.0 | 0.0 | 0.00 | 0.00 | 0.00 | 43 | 1017.8 | |
| 20260503224536 | 75 | 0.0 | 0.0 | 0.00 | 0.00 | 0.00 | 43 | 1017.8 | |
| 20260503223043 | 75 | 0.0 | 0.0 | 0.00 | 0.00 | 0.00 | 43 | 1017.8 | |
| 20260503221549 | 75 | 0.0 | 0.0 | 0.00 | 0.00 | 0.00 | 43 | 1018.0 | |
| 20260503220041 | 76 | 0.0 | 0.0 | 0.00 | 0.00 | 0.00 | 43 | 1018.1 | |
| 20260503214539 | 76 | 0.0 | 0.0 | 0.00 | 0.00 | 0.00 | 41 | 1018.2 | |
| 20260503213044 | 77 | 0.0 | 0.0 | 0.00 | 0.00 | 0.00 | 41 | 1018.3 | |
| 20260503211545 | 77 | 0.0 | 0.0 | 0.00 | 0.00 | 0.00 | 39 | 1018.5 | |
| 20260503210042 | 77 | 0.0 | 0.0 | 0.00 | 0.00 | 0.00 | 39 | 1018.7 | |
| 20260503204544 | 77 | 0.0 | 0.0 | 0.00 | 0.00 | 0.00 | 40 | 1018.9 | |
| 20260503203044 | 77 | 0.0 | 0.0 | 0.00 | 0.00 | 0.00 | 40 | 1019.1 | |
| 20260503201541 | 78 | 0.0 | 0.0 | 0.00 | 0.00 | 0.00 | 39 | 1019.3 | |
| 20260503200050 | 78 | 0.0 | 0.0 | 0.00 | 0.00 | 0.00 | 39 | 1019.5 | |
| 20260503194543 | 78 | 0.0 | 0.0 | 0.00 | 0.00 | 0.00 | 38 | 1019.8 | |
| 20260503193047 | 78 | 0.0 | 0.0 | 0.00 | 0.00 | 0.00 | 37 | 1020.1 | |
| 20260503191541 | 78 | 0.0 | 0.0 | 0.00 | 0.00 | 0.00 | 38 | 1020.4 | |
| 20260503190043 | 79 | 0.0 | 0.0 | 0.00 | 0.00 | 0.00 | 37 | 1020.7 | |
| 20260503184537 | 79 | 0.0 | 0.0 | 0.00 | 0.00 | 0.00 | 36 | 1020.9 | |
| 20260503183100 | 78 | 0.0 | 0.0 | 0.00 | 0.00 | 0.00 | 34 | 1021.0 | |
| 20260503181613 | 79 | 0.0 | 0.0 | 0.00 | 0.00 | 0.00 | 35 | 1021.4 | |
| 20260503180043 | 77 | 0.0 | 0.0 | 0.00 | 0.00 | 0.00 | 36 | 1021.6 | |
| 20260503174543 | 77 | 0.0 | 0.0 | 0.00 | 0.00 | 0.00 | 35 | 1021.8 | |
| 20260503173040 | 78 | 0.0 | 0.0 | 0.00 | 0.00 | 0.00 | 36 | 1022.0 | |
| 20260503171538 | 78 | 0.0 | 0.0 | 0.00 | 0.00 | 0.00 | 34 | 1022.1 | |
| 20260503081546 | 53 | 0.0 | 0.0 | 0.00 | 0.00 | 0.00 | 28 | 1020.0 | |
| 20260503071539 | 53 | 0.0 | 0.0 | 0.00 | 0.00 | 0.00 | 35 | 1019.8 | |
| 20260503060107 | 54 | 0.0 | 0.0 | 0.00 | 0.00 | 0.00 | 54 | 1020.0 | |
| 20260503054545 | 54 | 0.0 | 0.0 | 0.00 | 0.00 | 0.00 | 58 | 1019.9 | |
| 20260503053043 | 54 | 0.0 | 0.0 | 0.00 | 0.00 | 0.00 | 63 | 1019.8 | |
| 20260503051544 | 55 | 0.0 | 0.0 | 0.00 | 0.00 | 0.00 | 68 | 1019.8 | |
| 20260503050049 | 55 | 0.0 | 0.0 | 0.00 | 0.00 | 0.00 | 70 | 1019.7 | |
| 20260503044548 | 55 | 0.0 | 0.0 | 0.00 | 0.00 | 0.00 | 71 | 1019.7 | |
| 20260503043046 | 55 | 0.0 | 0.0 | 0.00 | 0.00 | 0.00 | 72 | 1019.6 | |
| 20260503041545 | 56 | 0.0 | 0.0 | 0.00 | 0.00 | 0.00 | 72 | 1019.4 | |
| 20260503040044 | 56 | 0.0 | 0.0 | 0.00 | 0.00 | 0.00 | 72 | 1019.5 | |
| 20260503034541 | 57 | 0.0 | 0.0 | 0.00 | 0.00 | 0.00 | 72 | 1019.4 | |
| 20260503033047 | 57 | 0.0 | 0.0 | 0.00 | 0.00 | 0.00 | 71 | 1019.2 | |
| 20260503031540 | 58 | 0.0 | 0.0 | 0.00 | 0.00 | 0.00 | 70 | 1019.1 | |
| 20260503030048 | 58 | 0.0 | 0.0 | 0.00 | 0.00 | 0.00 | 69 | 1019.1 | |
| 20260503024543 | 59 | 0.0 | 0.0 | 0.00 | 0.00 | 0.00 | 67 | 1019.2 | |
| 20260503023043 | 59 | 0.0 | 0.0 | 0.00 | 0.00 | 0.00 | 66 | 1018.9 | |
| 20260503021542 | 60 | 0.0 | 0.0 | 0.00 | 0.00 | 0.00 | 64 | 1018.8 | |
| 20260503020040 | 61 | 0.0 | 0.0 | 0.00 | 0.00 | 0.00 | 63 | 1018.7 | |
| 20260503014544 | 61 | 0.0 | 0.0 | 0.00 | 0.00 | 0.00 | 61 | 1018.7 | |
| 20260503013051 | 62 | 0.0 | 0.0 | 0.00 | 0.00 | 0.00 | 59 | 1018.6 | |
| 20260503011544 | 63 | 0.0 | 0.0 | 0.00 | 0.00 | 0.00 | 55 | 1018.5 | |
| 20260503010107 | 64 | 0.0 | 0.0 | 0.00 | 0.00 | 0.00 | 53 | 1018.4 | |
| 20260503004540 | 65 | 0.0 | 0.0 | 0.00 | 0.00 | 0.00 | 51 | 1018.3 | |
| 20260503003039 | 65 | 0.0 | 0.0 | 0.00 | 0.00 | 0.00 | 50 | 1018.1 | |
| 20260503001545 | 66 | 0.0 | 0.0 | 0.00 | 0.00 | 0.00 | 47 | 1018.0 |